Location: Alessandria
(44.9000°N, 8.6170°E)
Time: 02:55:51
(UTC+02:00)

ISS - Pass Details

Date: 16 May 2021
Orbit: 417 x 422 km, 51.6° (Epoch: 14 June)

Event Time Altitude Azimuth Distance (km) Brightness Sun altitude
Rises 22:49:34 0° 251° (WSW) 2,357 0.3 -17.0°
Reaches altitude 10° 22:51:41 10° 256° (WSW) 1,496 -0.7 -17.3°
Maximum altitude 22:54:59 55° 335° (NNW) 510 -3.0 -17.6°
Drops below altitude 10° 22:58:19 10° 55° (NE) 1,505 -1.0 -17.9°
Sets 23:00:27 0° 60° (ENE) 2,372 0.0 -18.2°
